ONEWEB-0352, 49216

Orbit data source: Space-Track

ONEWEB-0352, 49216 is a payload satellite owned by One Web (NAA) (UK) in LEO that was launched on Tue, 14 Sep 2021 UTC via a SOYUZ-2-1B launch vehicle from the Tyuratam Missile And Space Complex (TTMTR). Payload-class satellites include a variety of spacecraft equipped with specific instruments for various scientific and technological missions. These include communications satellites like Starlink; space stations such as the ISS; scientific satellites like the Hubble; Earth observation satellites from companies like Planet Labs, Umbra, and HawkEye 360; GPS; miniature CubeSats for education and research; and military/defense satellites.

Loading next visibility...
Identifier
49216, 2021-083AG
Orbit
LEO
Country
Flag of UKUK
Related business
Manufacturer
One Web
Mission
Operational Commercial Communications
Bus & Motor
ARROW, Unknown motor
Mass
148 kg wet, ~140 kg dry
Launch date (UTC)
2021-09-14 (4 years ago)
Launch vehicle
SOYUZ-2-1B
Launch site
Tyuratam Missile And Space Complex (TTMTR)
Object type
Payload
Rocket body
Debris
Shape & HBR
Trap Box + 2 Pan, 2.5 m
Radar Cross Section
2.032 m², Medium (>0.1 m² and < 1m²)

Expand to show TLE details & history
Last TLE update: 13 hours ago

TLE from 13 hours ago
0 ONEWEB-0352
1 49216U 21083AG  25250.25382167  .00000171  00000-0  43276-3 0  9998
2 49216  87.9011  16.4628 0001294 102.9627 257.1647 13.13470706193883
Epoch: 2025-09-07T06:05Z
TLE epoch observation values (Epoch: 2025-09-07T06:05:30.192Z)
Latitude
0.00002°
Longitude
-61.48894°
Altitude
1,212.873 km
Speed
7.248 km/s
True Right ascension
01h 05m 51s
True Declination
0° 00' 00"
Sunlit
Object was in full shadow at epoch
Visualization orbit readout
Latitude
Unknown
Longitude
Unknown
Altitude
Unknown
Speed
Unknown
Apparent Right ascension
Unknown
Apparent Declination
Unknown
Sunlit
N/A
Visualization observer readout
Local Sidereal Time
11:40:07
Azimuth
Unknown
Elevation
Unknown
Doppler factor
Unknown
Orbital elements
Apogee altitude
1,207.859 km
Perigee altitude
1,205.896 km
Semi-major axis
7,585.015 km
Eccentricity
0.00013
Inclination
87.9011°
RAAN
16.4628°
Arg. of periapsis
102.9627°
True anomaly
257.15024°
Mean anomaly
257.1647°
Eccentric anomaly
257.15747°
Mean motion
3.28555 °/min
Orbital period
109.57 mins
BSTAR
0.00043276
Loading maneuver chart data...
Computing Atmospheric mass density...
Loading historical data...
Loading historical data...
Loading historical data...
Loading historical data...
Loading historical data...
Loading historical data...
Loading historical data...

Documentation

Showing up to 5 results
|